Flag for U.S.A. Weather past 2 weeks in Aurora, Illinois, U.S.A.

Now
47 °F

Sunny.


Feels Like: 41 °F
Forecast: 36 / 49 °F
Wind: 15 mph from Southwest

Location: Dupage Airport

Current Time: Dec 26, 2014 at 12:43:15 PM

Latest Report: Dec 26, 2014 at 11:52 AM


Visibility: 10 mi

Pressure: 30.01 "Hg

Humidity: 69%

Dew point: 37 °F

Location of AuroraLocation

Historic Weather in Aurora — Graph

°F

Aurora temperature yesterday

Maximum temperature yesterday: 43 °F (at 2:52 PM)
Minimum temperature yesterday: 33 °F (at 6:52 AM)
Average temperature yesterday: 37 °F

Past Weeks' High & Low Weather Summary

 TemperatureHumidityPressure
High47 °F (Dec 14, 11:52 AM)100% (Dec 14, 9:52 AM)30.36 "Hg (Dec 14, 9:52 AM)
Low21 °F (Dec 18, 6:52 AM)64% (Dec 18, 12:52 PM)29.50 "Hg (Dec 24, 1:02 PM)
Average35 °F84%30.04 "Hg
* Reported Dec 11 10:52 AM — Dec 26 10:52 AM, Aurora, Weather by CustomWeather, © 2014

Note: Actual official high and low records may vary slightly from our data, if they occured in-between our weather recording intervals... More about our weather records

Advertising

Aurora weather history for previous 24 hours

 ConditionsComfort  
Time TempWeatherWind HumidityBarometerVisibility
10:52 AM
Dec 26
45 °FSunny.9 mph74%30.03 "Hg10 mi
9:52 AM41 °FSunny.10 mph80%30.04 "Hg10 mi
8:52 AM37 °FSunny.9 mph89%30.03 "Hg10 mi
7:52 AM34 °FSunny.8 mph88%30.02 "Hg10 mi
6:52 AM33 °FClear.8 mph88%30.01 "Hg10 mi
5:52 AM33 °FClear.8 mph88%30.00 "Hg10 mi
4:52 AM34 °FClear.10 mph85%30.00 "Hg10 mi
3:52 AM34 °FClear.9 mph88%29.99 "Hg10 mi
2:52 AM36 °FClear.14 mph85%29.99 "Hg10 mi
1:52 AM36 °FClear.13 mph85%30.00 "Hg10 mi
12:52 AM37 °FClear.13 mph86%30.01 "Hg10 mi
11:52 PM
Dec 25
38 °FClear.14 mph83%30.01 "Hg10 mi
10:52 PM39 °FClear.14 mph79%30.02 "Hg10 mi
9:52 PM38 °FClear.10 mph83%30.01 "Hg10 mi
8:52 PM38 °FClear.13 mph86%29.99 "Hg10 mi
7:52 PM39 °FClear.12 mph82%29.99 "Hg10 mi
6:52 PM40 °FClear.12 mph80%29.99 "Hg10 mi
5:52 PM41 °FClear.12 mph76%30.00 "Hg10 mi
4:52 PM40 °FClear.9 mph77%29.98 "Hg10 mi
3:52 PM42 °FSunny.14 mph71%29.96 "Hg10 mi
2:52 PM43 °FSunny.18 mph65%29.96 "Hg10 mi
1:52 PM42 °FSunny.13 mph65%29.96 "Hg10 mi
12:52 PM40 °FPassing clouds.15 mph70%29.96 "Hg10 mi
Weather by CustomWeather, © 2014

See weather overviewHow to use our weather pages